Weather History for Sedalia, MO

Change the Weather History Date:

Tuesday, November 20, 2012

  Actual Average Record
Temperature  
Mean Temperature 53 °F 45 °F  
Max Temperature 63 °F 53 °F 75 °F (1942)
Min Temperature 42 °F 36 °F 9 °F (1937)
Degree Days  
Heating Degree Days 12 20  
Month to date heating degree days 306 323  
Since 1 July heating degree days 665 614  
Cooling Degree Days 0 0  
Month to date cooling degree days 4 0  
Year to date cooling degree days 2111 1487  
Growing Degree Days 2 (Base 50)    
Moisture  
Dew Point 44 °F    
Average Humidity 76    
Maximum Humidity 96    
Minimum Humidity 56    
Precipitation  
Precipitation 0.00 in 0.09 in 1.10 in (1992)
Month to date precipitation 1.49 2.12  
Year to date precipitation 29.41 37.81  
Sea Level Pressure  
Sea Level Pressure 30.17 in    
Wind  
Wind Speed 6 mph (WNW)    
Max Wind Speed 13 mph    
Max Gust Speed 15 mph    
Visibility 8 miles    
Events      
T = Trace of Precipitation, MM = Missing Value Source: NWS Daily Summary

Daily Weather History Graph

Daily Weather History Graph

Search for Another Location

Airport:

Trip Planner

Search our weather history database for the weather conditions in past years. The results will help you decide how hot, cold, wet, or windy it might be!

Date:

Astronomy

Nov. 20, 2012 Rise Set
Actual Time 7:00 AM CST 4:55 PM CST
Civil Twilight 6:32 AM CST 5:24 PM CST
Nautical Twilight 5:59 AM CST 5:56 PM CST
Astronomical Twilight 5:28 AM CST 6:28 PM CST
Moon 12:37 PM CST (11/20) No Moon Set
Length of Visible Light 10h 52m
Length of Day
9h 54m
First Quarter, 51% of the Moon is Illuminated
Nov 20
First Quarter
Nov 28
Full
Dec 6
Last Quarter
Dec 13
New
Dec 19
First Quarter

Hourly Weather History & Observations

Time (CST) Temp. Windchill Dew Point Humidity Pressure Visibility Wind Dir Wind Speed Gust Speed Precip Events Conditions
12:53 AM 51.1 °F - 46.9 °F 86% 30.09 in 10.0 mi SW 9.2 mph - N/A   Clear
1:53 AM 48.9 °F - 46.0 °F 90% 30.09 in 8.0 mi WSW 8.1 mph - N/A   Clear
2:53 AM 46.9 °F - 45.0 °F 93% 30.11 in 7.0 mi WSW 6.9 mph - N/A   Clear
3:53 AM 46.9 °F - 45.0 °F 93% 30.11 in 7.0 mi West 6.9 mph - N/A   Clear
4:53 AM 46.0 °F 41.9 °F 44.1 °F 93% 30.13 in 6.0 mi WNW 8.1 mph - N/A   Clear
5:53 AM 45.0 °F 41.8 °F 42.1 °F 90% 30.14 in 8.0 mi West 5.8 mph - N/A   Clear
6:53 AM 43.0 °F 39.5 °F 41.0 °F 93% 30.15 in 6.0 mi West 5.8 mph - N/A   Clear
7:53 AM 45.0 °F 41.2 °F 41.0 °F 86% 30.17 in 7.0 mi WNW 6.9 mph - N/A   Clear
8:53 AM 48.9 °F - 43.0 °F 80% 30.18 in 9.0 mi WNW 9.2 mph - N/A   Clear
9:53 AM 51.1 °F - 44.1 °F 77% 30.19 in 9.0 mi WNW 10.4 mph - N/A   Clear
10:53 AM 54.0 °F - 44.1 °F 69% 30.19 in 10.0 mi NW 9.2 mph - N/A   Clear
11:53 AM 57.0 °F - 45.0 °F 64% 30.17 in 10.0 mi NW 10.4 mph - N/A   Clear
12:53 PM 60.1 °F - 46.0 °F 60% 30.16 in 10.0 mi NW 9.2 mph - N/A   Clear
1:53 PM 61.0 °F - 46.0 °F 58% 30.15 in 10.0 mi NW 9.2 mph - N/A   Clear
2:53 PM 62.1 °F - 46.0 °F 56% 30.16 in 10.0 mi NW 6.9 mph - N/A   Clear
3:53 PM 62.1 °F - 46.9 °F 58% 30.17 in 10.0 mi NNW 9.2 mph - N/A   Clear
4:53 PM 55.9 °F - 45.0 °F 67% 30.17 in 9.0 mi NW 5.8 mph - N/A   Clear
5:53 PM 54.0 °F - 44.1 °F 69% 30.19 in 7.0 mi NW 4.6 mph - N/A   Clear
6:53 PM 54.0 °F - 44.1 °F 69% 30.21 in 9.0 mi Calm Calm - N/A   Clear
7:53 PM 52.0 °F - 44.1 °F 74% 30.21 in 9.0 mi Calm Calm - N/A   Clear
8:53 PM 48.9 °F - 44.1 °F 83% 30.22 in 8.0 mi Calm Calm - N/A   Clear
9:53 PM 48.9 °F - 44.1 °F 83% 30.23 in 8.0 mi Calm Calm - N/A   Clear
10:53 PM 50.0 °F - 44.1 °F 80% 30.23 in 8.0 mi West 3.5 mph - N/A   Clear
11:53 PM 44.1 °F - 41.0 °F 89% 30.23 in 7.0 mi Calm Calm - N/A   Clear